When you browse on this site, cookies collect data to enhance your experience and personalize the content and advertising you see.
Visit our Privacy Policy to learn more. By continuing to use the site, you agree to this use of cookies and data.
  • In Schweiz
  • Länderverzeichnis
  • Für 7 Tage
  • Wassertemperatur
  • Wetterkarte
  • Widgets
  • user-avatar
    Anmelden

    Stündliche Wetter Buenos Aires

    Heute, 15 November, Freitag

    Zeit Temperatur Niederschläge Wind Luftdruck Luftfeuchtigkeit
    00:00 +22°C° 0 mm 4 m/S 759 mmHg 67%
    01:00 +21°C° 0 mm 4 m/S 759 mmHg 69%
    02:00 +21°C° 0 mm 3 m/S 759 mmHg 71%
    03:00 +21°C° 0 mm 3 m/S 759 mmHg 70%
    04:00 +20°C° 0 mm 2 m/S 759 mmHg 69%
    05:00 +20°C° 0 mm 2 m/S 759 mmHg 68%
    06:00 +23°C° 0 mm 2 m/S 759 mmHg 60%
    07:00 +24°C° 0 mm 2 m/S 760 mmHg 52%
    08:00 +26°C° 0 mm 2 m/S 760 mmHg 44%
    09:00 +28°C° 0 mm 2 m/S 760 mmHg 38%
    10:00 +30°C° 0 mm 2 m/S 760 mmHg 33%
    11:00 +33°C° 0 mm 3 m/S 759 mmHg 28%
    12:00 +33°C° 0 mm 3 m/S 759 mmHg 27%
    13:00 +34°C° 0 mm 3 m/S 758 mmHg 26%
    14:00 +34°C° 0 mm 3 m/S 758 mmHg 25%
    15:00 +34°C° 0 mm 3 m/S 757 mmHg 26%
    16:00 +33°C° 0 mm 3 m/S 757 mmHg 27%
    17:00 +31°C° 0 mm 3 m/S 756 mmHg 29%
    18:00 +30°C° 0 mm 4 m/S 757 mmHg 35%
    19:00 +29°C° 0 mm 4 m/S 757 mmHg 41%
    20:00 +27°C° 0 mm 5 m/S 757 mmHg 47%
    21:00 +27°C° 0 mm 5 m/S 757 mmHg 47%
    22:00 +26°C° 0 mm 5 m/S 757 mmHg 48%
    23:00 +26°C° 0 mm 6 m/S 757 mmHg 49%

    Morgen, 16 November, Samstag

    Zeit Temperatur Niederschläge Wind Luftdruck Luftfeuchtigkeit
    00:00 +24°C° 0 mm 6 m/S 757 mmHg 50%
    01:00 +24°C° 0 mm 6 m/S 756 mmHg 52%
    02:00 +23°C° 0 mm 6 m/S 756 mmHg 54%
    03:00 +23°C° 0 mm 6 m/S 756 mmHg 55%
    04:00 +23°C° 0 mm 5 m/S 756 mmHg 57%
    05:00 +22°C° 0 mm 5 m/S 757 mmHg 59%
    06:00 +23°C° 0.2 mm 5 m/S 757 mmHg 56%
    07:00 +25°C° 0.2 mm 5 m/S 757 mmHg 53%
    08:00 +26°C° 0.2 mm 5 m/S 758 mmHg 50%
    09:00 +27°C° 0.1 mm 5 m/S 758 mmHg 49%
    10:00 +28°C° 0.1 mm 5 m/S 758 mmHg 47%
    11:00 +29°C° 0.1 mm 4 m/S 758 mmHg 46%
    12:00 +29°C° 0 mm 5 m/S 757 mmHg 44%
    13:00 +30°C° 0 mm 6 m/S 757 mmHg 43%
    14:00 +30°C° 0 mm 6 m/S 757 mmHg 42%
    15:00 +30°C° 0 mm 5 m/S 756 mmHg 44%
    16:00 +29°C° 0 mm 5 m/S 756 mmHg 47%
    17:00 +29°C° 0 mm 4 m/S 755 mmHg 50%
    18:00 +28°C° 0 mm 4 m/S 756 mmHg 54%
    19:00 +27°C° 0 mm 4 m/S 756 mmHg 58%
    20:00 +26°C° 0 mm 3 m/S 756 mmHg 62%
    21:00 +26°C° 0 mm 3 m/S 756 mmHg 64%
    22:00 +25°C° 0 mm 4 m/S 756 mmHg 66%
    23:00 +25°C° 0 mm 4 m/S 756 mmHg 67%

    übermorgen, 17 November, Sonntag

    Zeit Temperatur Niederschläge Wind Luftdruck Luftfeuchtigkeit
    00:00 +23°C° 0 mm 4 m/S 756 mmHg 69%
    01:00 +23°C° 0 mm 4 m/S 756 mmHg 70%
    02:00 +22°C° 0 mm 3 m/S 756 mmHg 71%
    03:00 +22°C° 0 mm 3 m/S 757 mmHg 71%
    04:00 +21°C° 0 mm 3 m/S 757 mmHg 72%
    05:00 +21°C° 0 mm 3 m/S 757 mmHg 72%
    06:00 +24°C° 0 mm 3 m/S 758 mmHg 63%
    07:00 +26°C° 0 mm 3 m/S 758 mmHg 54%
    08:00 +27°C° 0 mm 3 m/S 758 mmHg 45%
    09:00 +29°C° 0 mm 4 m/S 758 mmHg 40%
    10:00 +32°C° 0 mm 4 m/S 758 mmHg 36%
    11:00 +34°C° 0 mm 4 m/S 757 mmHg 31%
    12:00 +35°C° 0 mm 4 m/S 757 mmHg 31%
    13:00 +35°C° 0 mm 5 m/S 756 mmHg 30%
    14:00 +36°C° 0 mm 5 m/S 756 mmHg 29%
    15:00 +35°C° 0 mm 6 m/S 755 mmHg 31%
    16:00 +35°C° 0 mm 7 m/S 754 mmHg 33%
    17:00 +34°C° 0 mm 7 m/S 754 mmHg 34%
    18:00 +33°C° 0 mm 7 m/S 755 mmHg 39%
    19:00 +32°C° 0 mm 6 m/S 756 mmHg 44%
    20:00 +30°C° 0 mm 5 m/S 757 mmHg 49%
    21:00 +28°C° 0.2 mm 6 m/S 757 mmHg 57%
    22:00 +26°C° 0.2 mm 6 m/S 757 mmHg 66%
    23:00 +24°C° 0.2 mm 6 m/S 758 mmHg 74%

    18 November, Montag

    Zeit Temperatur Niederschläge Wind Luftdruck Luftfeuchtigkeit
    00:00 +23°C° 0.5 mm 5 m/S 758 mmHg 76%
    01:00 +23°C° 0.5 mm 4 m/S 758 mmHg 79%
    02:00 +24°C° 0.5 mm 2 m/S 757 mmHg 81%
    03:00 +24°C° 0.6 mm 3 m/S 758 mmHg 80%
    04:00 +23°C° 0.6 mm 4 m/S 758 mmHg 79%
    05:00 +23°C° 0.6 mm 5 m/S 759 mmHg 77%
    06:00 +25°C° 0.2 mm 4 m/S 759 mmHg 73%
    07:00 +25°C° 0.2 mm 4 m/S 759 mmHg 69%
    08:00 +26°C° 0.2 mm 3 m/S 759 mmHg 64%
    09:00 +27°C° 0.5 mm 3 m/S 760 mmHg 57%
    10:00 +29°C° 0.5 mm 3 m/S 760 mmHg 50%
    11:00 +30°C° 0.5 mm 3 m/S 760 mmHg 42%
    12:00 +31°C° 0.5 mm 3 m/S 760 mmHg 39%
    13:00 +33°C° 0.5 mm 3 m/S 759 mmHg 35%
    14:00 +34°C° 0.5 mm 3 m/S 759 mmHg 32%
    15:00 +34°C° 0.1 mm 3 m/S 759 mmHg 34%
    16:00 +33°C° 0.1 mm 3 m/S 758 mmHg 37%
    17:00 +31°C° 0.1 mm 2 m/S 758 mmHg 39%
    18:00 +30°C° 0.3 mm 2 m/S 759 mmHg 45%
    19:00 +29°C° 0.3 mm 3 m/S 759 mmHg 50%
    20:00 +27°C° 0.3 mm 3 m/S 759 mmHg 55%
    21:00 +27°C° 0.3 mm 2 m/S 760 mmHg 58%
    22:00 +26°C° 0.3 mm 2 m/S 760 mmHg 62%
    23:00 +26°C° 0.3 mm 2 m/S 760 mmHg 65%

    19 November, Dienstag

    Zeit Temperatur Niederschläge Wind Luftdruck Luftfeuchtigkeit
    00:00 +25°C° 0.1 mm 2 m/S 760 mmHg 67%
    01:00 +25°C° 0.1 mm 2 m/S 760 mmHg 69%
    02:00 +25°C° 0.1 mm 2 m/S 760 mmHg 72%
    03:00 +24°C° 0.1 mm 2 m/S 760 mmHg 73%
    04:00 +24°C° 0.1 mm 2 m/S 760 mmHg 74%
    05:00 +23°C° 0.1 mm 2 m/S 761 mmHg 74%
    06:00 +25°C° 0.1 mm 2 m/S 761 mmHg 69%
    07:00 +26°C° 0.1 mm 3 m/S 761 mmHg 63%
    08:00 +28°C° 0.1 mm 3 m/S 761 mmHg 57%
    09:00 +29°C° 0 mm 3 m/S 761 mmHg 52%
    10:00 +30°C° 0 mm 4 m/S 761 mmHg 47%
    11:00 +33°C° 0 mm 4 m/S 760 mmHg 42%
    12:00 +33°C° 0 mm 4 m/S 760 mmHg 40%
    13:00 +34°C° 0 mm 4 m/S 759 mmHg 39%
    14:00 +34°C° 0 mm 4 m/S 758 mmHg 37%
    15:00 +34°C° 0 mm 5 m/S 758 mmHg 40%
    16:00 +33°C° 0 mm 5 m/S 758 mmHg 43%
    17:00 +32°C° 0 mm 5 m/S 757 mmHg 46%
    18:00 +30°C° 0 mm 5 m/S 758 mmHg 52%
    19:00 +29°C° 0 mm 5 m/S 758 mmHg 58%
    20:00 +27°C° 0 mm 5 m/S 758 mmHg 64%
    21:00 +27°C° 0 mm 5 m/S 758 mmHg 64%
    22:00 +27°C° 0 mm 5 m/S 758 mmHg 63%
    23:00 +27°C° 0 mm 4 m/S 758 mmHg 62%

    20 November, Mittwoch

    Zeit Temperatur Niederschläge Wind Luftdruck Luftfeuchtigkeit
    00:00 +27°C° 0 mm 4 m/S 758 mmHg 60%
    01:00 +27°C° 0 mm 4 m/S 757 mmHg 58%
    02:00 +26°C° 0 mm 4 m/S 757 mmHg 55%
    03:00 +26°C° 0 mm 5 m/S 757 mmHg 56%
    04:00 +25°C° 0 mm 5 m/S 757 mmHg 56%
    05:00 +24°C° 0 mm 6 m/S 757 mmHg 57%
    06:00 +26°C° 0 mm 5 m/S 757 mmHg 53%
    07:00 +27°C° 0 mm 5 m/S 757 mmHg 50%
    08:00 +28°C° 0 mm 5 m/S 757 mmHg 46%
    09:00 +30°C° 0 mm 5 m/S 757 mmHg 42%
    10:00 +33°C° 0 mm 4 m/S 757 mmHg 38%
    11:00 +35°C° 0 mm 4 m/S 757 mmHg 33%
    12:00 +36°C° 0 mm 4 m/S 756 mmHg 32%
    13:00 +37°C° 0 mm 4 m/S 755 mmHg 31%
    14:00 +37°C° 0 mm 4 m/S 755 mmHg 30%
    15:00 +37°C° 0 mm 4 m/S 754 mmHg 32%
    16:00 +36°C° 0 mm 4 m/S 754 mmHg 34%
    17:00 +36°C° 0 mm 4 m/S 754 mmHg 37%
    18:00 +35°C° 0 mm 4 m/S 754 mmHg 42%
    19:00 +33°C° 0 mm 4 m/S 755 mmHg 47%
    20:00 +32°C° 0 mm 5 m/S 755 mmHg 52%
    21:00 +30°C° 0 mm 4 m/S 756 mmHg 57%
    22:00 +29°C° 0 mm 4 m/S 756 mmHg 62%
    23:00 +28°C° 0 mm 4 m/S 756 mmHg 67%
    Mehr zeigen